Location: ??????
(55.8274°N, 37.9338°E)
Time: 08:37:47
(UTC+00:00)

CRYOSAT 2 - Pass Details

Date: 14 April 2024
Orbit: 716 x 722 km, 92.0° (Epoch: 19 May)

Event Time Altitude Azimuth Distance (km) Brightness Sun altitude
Rises 01:44:13 0° 4° (N) 3,145 8.1 -6.1°
Reaches altitude 10° 01:46:31 10° 5° (N) 2,219 7.4 -5.8°
Maximum altitude 01:51:27 89° 276° (W) 727 4.4 -5.2°
Drops below altitude 10° 01:56:19 10° 187° (S) 2,199 6.6 -4.6°
Sets 01:58:35 0° 187° (S) 3,114 7.3 -4.3°
